Nantucket, MA

4:09 PM EDT on April 19, 2018 (GMT -0400)
Nantucket Memorial

Weather History for KACK - January, 2011

Change the Weather History Date:

Sunday, January 2, 2011

  Actual Average Record
Temperature  
Mean Temperature 45 °F -  
Max Temperature 48 °F 39 °F 55 °F (1979)
Min Temperature 39 °F 26 °F 8 °F (1999)
Degree Days  
Heating Degree Days 20    
Moisture  
Dew Point 44 °F    
Average Humidity 97    
Maximum Humidity 100    
Minimum Humidity 87    
Precipitation  
Precipitation 0.22 in - - ()
Sea Level Pressure  
Sea Level Pressure 29.87 in    
Wind  
Wind Speed 9 mph (WSW)    
Max Wind Speed 20 mph    
Max Gust Speed 26 mph    
Visibility 3 miles    
Events Fog , Rain    
Averages and records for this station are not official NWS values.
T = Trace of Precipitation, MM = Missing Value Source: NWS Daily Summary

Daily Weather History Graph

Daily Weather History Graph

Search for Another Location

Airport or City:

Astronomy

Jan. 02, 2011 Rise Set
Actual Time 7:06 AM EST 4:22 PM EST
Civil Twilight 6:34 AM EST 4:53 PM EST
Nautical Twilight 6:00 AM EST 5:28 PM EST
Astronomical Twilight 5:26 AM EST 6:01 PM EST
Moon 5:36 AM EST (1/2) 2:50 PM EST (1/2)
Length of Visible Light 10h 18m
Length of Day
9h 16m
Waning Crescent, 3% of the Moon is Illuminated
Jan 2
Waning Crescent
Jan 4
New
Jan 12
First Quarter
Jan 19
Full
Jan 26
Last Quarter

Hourly Weather History & Observations

Time (EST) Temp. Windchill Dew Point Humidity Pressure Visibility Wind Dir Wind Speed Gust Speed Precip Events Conditions
12:20 AM 44.6 °F 42.2 °F 42.8 °F 93% 30.03 in 4.0 mi SW 4.6 mph - N/A   Overcast
12:35 AM 44.6 °F 41.4 °F 42.8 °F 93% 30.02 in 4.0 mi SSW 5.8 mph - N/A   Overcast
12:53 AM 44.1 °F 40.8 °F 43.0 °F 96% 30.02 in 3.0 mi SSW 5.8 mph - N/A   Overcast
1:35 AM 44.6 °F 40.7 °F 42.8 °F 93% 30.01 in 4.0 mi SW 6.9 mph - N/A   Overcast
2:17 AM 44.6 °F 39.2 °F 44.6 °F 100% 30.01 in 4.0 mi SW 10.4 mph - N/A   Overcast
2:53 AM 45.0 °F 40.1 °F 44.1 °F 97% 29.99 in 4.0 mi SW 9.2 mph - N/A   Overcast
3:53 AM 45.0 °F 40.6 °F 44.1 °F 97% 29.97 in 4.0 mi SSW 8.1 mph - N/A   Overcast
4:04 AM 44.6 °F 40.2 °F 44.6 °F 100% 29.96 in 4.0 mi SW 8.1 mph - N/A   Overcast
4:34 AM 44.6 °F 38.8 °F 44.6 °F 100% 29.95 in 4.0 mi SW 11.5 mph - N/A   Overcast
4:53 AM 46.9 °F - 45.0 °F 93% 29.96 in 5.0 mi SW 13.8 mph - N/A   Overcast
5:01 AM 44.6 °F 38.8 °F 44.6 °F 100% 29.95 in 4.0 mi SW 11.5 mph - N/A   Overcast
5:49 AM 46.4 °F 41.1 °F 44.6 °F 93% 29.95 in 2.5 mi SW 11.5 mph - 0.00 in   Overcast
5:50 AM 46.0 °F 41.0 °F 45.0 °F 96% 29.95 in 2.5 mi SW 10.4 mph - 0.00 in   Overcast
6:25 AM 48.2 °F - 46.4 °F 93% 29.94 in 3.0 mi SW 19.6 mph 26.5 mph 0.00 in Rain Light Rain
6:35 AM 46.4 °F 40.1 °F 46.4 °F 100% 29.94 in 2.0 mi SW 15.0 mph - 0.00 in   Overcast
6:53 AM 46.0 °F 39.9 °F 45.0 °F 96% 29.95 in 2.0 mi SW 13.8 mph - 0.00 in   Overcast
7:02 AM 44.6 °F 38.8 °F 44.6 °F 100% 29.95 in 2.0 mi WSW 11.5 mph - N/A   Overcast
7:16 AM 44.6 °F 38.4 °F 44.6 °F 100% 29.95 in 1.8 mi SW 12.7 mph - N/A   Overcast
7:53 AM 45.0 °F 38.9 °F 45.0 °F 100% 29.95 in 1.2 mi SW 12.7 mph - N/A   Overcast
8:05 AM 46.4 °F 40.4 °F 44.6 °F 93% 29.95 in 2.0 mi SW 13.8 mph - N/A   Overcast
8:53 AM 46.0 °F 39.9 °F 45.0 °F 96% 29.95 in 1.5 mi WSW 13.8 mph - N/A   Overcast
10:06 AM 48.2 °F - 46.4 °F 93% 29.95 in 0.2 mi WSW 13.8 mph - N/A Fog Fog
10:09 AM 46.4 °F 40.4 °F 46.4 °F 100% 29.94 in 0.2 mi WSW 13.8 mph - N/A Fog Fog
10:53 AM 46.0 °F 40.2 °F 46.0 °F 100% 29.94 in 0.2 mi WSW 12.7 mph - 0.00 in Fog Fog
11:53 AM 46.9 °F - 46.0 °F 97% 29.91 in 0.2 mi WSW 15.0 mph - N/A Fog Fog
12:20 PM 46.4 °F 40.4 °F 46.4 °F 100% 29.89 in 0.2 mi West 13.8 mph - N/A Fog Fog
12:40 PM 46.4 °F 40.7 °F 46.4 °F 100% 29.88 in 0.5 mi West 12.7 mph - N/A Fog Fog
12:53 PM 46.9 °F - 46.9 °F 100% 29.88 in 0.8 mi West 12.7 mph - N/A   Overcast
1:02 PM 46.4 °F 41.5 °F 46.4 °F 100% 29.87 in 1.8 mi West 10.4 mph - N/A   Overcast
1:10 PM 46.4 °F 40.4 °F 46.4 °F 100% 29.87 in 2.0 mi West 13.8 mph - N/A   Overcast
1:26 PM 46.4 °F 42.9 °F 46.4 °F 100% 29.86 in 5.0 mi West 6.9 mph - N/A   Mostly Cloudy
1:43 PM 46.4 °F 44.3 °F 46.4 °F 100% 29.86 in 8.0 mi WSW 4.6 mph - N/A   Mostly Cloudy
1:53 PM 46.9 °F - 45.0 °F 93% 29.86 in 8.0 mi West 6.9 mph - N/A   Mostly Cloudy
3:41 PM 42.8 °F 39.3 °F 39.2 °F 87% 29.84 in 2.5 mi SSW 5.8 mph - N/A   Overcast
3:46 PM 42.8 °F 39.3 °F 39.2 °F 87% 29.84 in 0.8 mi SW 5.8 mph - N/A   Overcast
3:53 PM 42.1 °F 38.4 °F 41.0 °F 96% 29.85 in 0.8 mi SW 5.8 mph - N/A   Overcast
4:00 PM 42.8 °F 39.3 °F 41.0 °F 93% 29.85 in 2.0 mi SW 5.8 mph - N/A   Overcast
4:07 PM 42.8 °F 37.0 °F 41.0 °F 93% 29.86 in 1.8 mi West 10.4 mph - N/A   Overcast
4:12 PM 42.8 °F 38.0 °F 41.0 °F 93% 29.85 in 3.0 mi West 8.1 mph - N/A   Overcast
4:50 PM 42.8 °F - 42.8 °F 100% 29.83 in 2.0 mi Calm Calm - 0.00 in   Overcast
4:51 PM 43.0 °F - 43.0 °F 100% 29.83 in 2.0 mi Calm Calm - 0.00 in   Overcast
4:58 PM 42.8 °F - 42.8 °F 100% 29.84 in 5.0 mi Calm Calm - N/A   Overcast
5:45 PM 42.8 °F - 42.8 °F 100% 29.82 in 2.5 mi Calm Calm - N/A   Overcast
5:53 PM 42.1 °F - 42.1 °F 100% 29.83 in 2.5 mi Calm Calm - N/A   Overcast
6:19 PM 42.8 °F - 42.8 °F 100% 29.81 in 3.0 mi Calm Calm - N/A   Overcast
6:53 PM 43.0 °F 41.3 °F 42.1 °F 97% 29.79 in 4.0 mi East 3.5 mph - 0.00 in Rain Light Rain
7:15 PM 44.6 °F 43.1 °F 42.8 °F 93% 29.76 in 4.0 mi ENE 3.5 mph - 0.00 in Rain Light Rain
7:17 PM 44.6 °F 43.1 °F 42.8 °F 93% 29.76 in 4.0 mi ENE 3.5 mph - 0.00 in Rain Light Rain
7:27 PM 44.6 °F 43.1 °F 42.8 °F 93% 29.75 in 1.8 mi ENE 3.5 mph - 0.00 in   Overcast
7:42 PM 44.6 °F 43.1 °F 42.8 °F 93% 29.74 in 0.8 mi ESE 3.5 mph - 0.00 in   Overcast
7:53 PM 44.1 °F - 43.0 °F 96% 29.76 in 1.0 mi Calm Calm - 0.00 in Rain Light Rain
8:24 PM 44.6 °F 40.2 °F 44.6 °F 100% 29.76 in 2.5 mi NW 8.1 mph - 0.08 in Rain Light Rain
8:39 PM 44.6 °F 38.8 °F 44.6 °F 100% 29.76 in 4.0 mi NW 11.5 mph - 0.08 in Rain Light Rain
8:53 PM 45.0 °F 38.9 °F 44.1 °F 97% 29.76 in 4.0 mi NW 12.7 mph - 0.08 in Rain Light Rain
9:09 PM 44.6 °F 38.1 °F 44.6 °F 100% 29.78 in 2.5 mi NW 13.8 mph - 0.05 in Rain Heavy Rain
9:17 PM 44.6 °F 37.8 °F 42.8 °F 93% 29.76 in 4.0 mi NW 15.0 mph 20.7 mph 0.06 in Rain Light Rain
9:32 PM 44.6 °F 38.1 °F 44.6 °F 100% 29.75 in 4.0 mi NNW 13.8 mph - 0.06 in Rain Light Rain
9:53 PM 44.1 °F 37.4 °F 43.0 °F 96% 29.78 in 5.0 mi NW 13.8 mph - 0.08 in Rain Rain
10:15 PM 44.6 °F 37.2 °F 42.8 °F 93% 29.76 in 5.0 mi NNW 17.3 mph 24.2 mph 0.01 in Rain Light Rain
10:40 PM 42.8 °F 35.8 °F 41.0 °F 93% 29.76 in 10.0 mi NW 13.8 mph - 0.02 in Rain Light Rain
10:53 PM 43.0 °F 36.8 °F 41.0 °F 93% 29.76 in 6.0 mi NW 11.5 mph - 0.04 in Rain Rain
11:53 PM 39.9 °F 31.4 °F 37.9 °F 93% 29.74 in 7.0 mi NW 16.1 mph - 0.02 in Rain Rain